Simultaneous Nadir Overpasses (SNOs) Predictions

Prediction of SNOs between LANDSAT-8 and METOP-B Satellite Orbit:

Table of predicted SNOs for the next 14.0 days since TLE Epoch: 12/31/2022
Index Date (LANDSAT-8) Time (LANDSAT-8) Lat,Lon (LANDSAT-8) SZA (LANDSAT-8 ) Date (METOP-B) Time (METOP-B) Lat,Lon (METOP-B) SZA (METOP-B ) Distance(km) Time Diff (sec)
1 01/01/2023 02:35:12 -81.11, 0.78 74.05 01/01/2023 02:34:30 -81.11, 0.90 74.05 2.13 42
2 01/01/2023 03:24:37 81.14, 168.87 106.02 01/01/2023 03:25:09 81.14, 168.95 106.04 1.48 32
3 01/03/2023 22:09:27 -81.11, 67.25 74.33 01/03/2023 22:08:53 -81.11, 67.14 74.35 1.78 34
4 01/03/2023 22:58:52 81.14,-124.70 105.73 01/03/2023 22:59:32 81.13,-124.83 105.73 2.30 40
5 01/06/2023 17:43:40 -81.12, 133.89 74.64 01/06/2023 17:43:13 -81.13, 134.07 74.63 3.00 27
6 01/06/2023 18:33:05 81.15, -58.08 105.42 01/06/2023 18:33:52 81.15, -57.93 105.45 2.55 47
7 01/09/2023 13:17:54 -81.12,-159.64 75.03 01/09/2023 13:17:35 -81.13,-159.45 75.02 3.19 19
8 01/09/2023 14:07:19 81.15, 8.37 105.02 01/09/2023 14:08:14 81.15, 8.52 105.06 2.72 55
9 01/12/2023 08:52:08 -81.12, -93.35 75.51 01/12/2023 08:51:58 -81.12, -93.42 75.52 1.25 10



Historial Predications of SNOs between LANDSAT-8 and METOP-B
